logo
Rechercher aéroport 
image banner adimage banner adimage banner ad
image banner ad

ZYTL - Dalian/Zhoushuizi

Situé à Dalian, China

ICAO - ZYTL, IATA - DLC

Données fournies par Airmate  

Information générale

Coordonnées: N38°58'0" E121°32'24"
Élévation : 108 feet MSL.
 
Voir autres Aéroports à Liaoning Province

Données opérationnelles

Special qualification required
Heure actuelle UTC:
Heure actuelle locale:
Météo
METAR: ZYTL 240600Z 11006MPS 9999 SCT040 22/07 Q1014 NOSIG
TAF: TAF ZYTL 240307Z 2406/2506 11004MPS 5000 BR FEW033 TX22/2506Z TN14/2420Z TEMPO 2416/2420 2000 -RA BR
Voir NOTAMs / SUP AIP / TFR affectant cet aéroport [VIEW]
Fréquences de communication: [VIEW]

Pistes:

Identifiant RWYQFULongueur (ft)Largeur (ft)SurfaceLDA (ft)
1096°10827148CON
28276°10827148CON

Coordonnées de l'aéroport

Adresse: Dalian China

Vue satellite de ZYTL